Location: Stara Lesna
(49.1528°N, 20.2911°E)
Time: 18:39:08
(UTC+02:00)

BREEZE-M DEB (TANK) - Pass Details

Date: 13 July 2020
Orbit: 328 x 12049 km, 49.6° (Epoch: 11 August)

Event Time Altitude Azimuth Distance (km) Brightness Sun altitude
Rises 00:04:18 0° 287° (WNW) 3,154 6.4 -18.5°
Reaches altitude 10° 00:07:29 10° 273° (W) 1,623 4.7 -18.6°
Enters shadow 00:08:46 17° 255° (WSW) 1,090 3.6 -18.6°
